Regional Weather Roundup
Issued by NWS

Home | Current Version | Previous Version | Graphics & Text | Print | Product List | Glossary On
Versions: 1 2 3 4 5 6 7 8 9 10 11 12 13 14 15 16 17 18 19 20 21 22 23 24 25 26 27 28 29 30 31 32 33 34 35 36 37 38 39 40 41 42 43 44 45 46 47 48 49 50
000
ASUS45 KCYS 271910
RWRWY

WYOMING REGIONAL WEATHER ROUNDUP
NATIONAL WEATHER SERVICE CHEYENNE WY
1200 PM MST THU NOV 27 2014

NOTE:  "FAIR" INDICATES FEW OR NO CLOUDS BELOW 12,000 FEET
WITH NO SIGNIFICANT WEATHER AND/OR OBSTRUCTIONS TO VISIBILITY.

WYZ001-272000-
YELLOWSTONE NATIONAL PARK

CITY           SKY/WX    TMP DP  RH WIND       PRES   REMARKS
LK YELLOWSTONE   N/A     37  25  61 VRB6      30.22F WCI  32
W YELLOWSTONE  NOT AVBL

$$
WYZ002>013-054>058-071-098>099-272000-
NORTHERN WYOMING

CITY           SKY/WX    TMP DP  RH WIND       PRES   REMARKS
JACKSON        CLOUDY    45  27  49 S13       30.20F
CODY           PTSUNNY   55  25  30 W16G29    30.00R
GREYBULL       CLOUDY    29  25  85 E7        30.02F WCI  22
WORLAND        PTSUNNY   29  26  89 SW6       30.03F WCI  23
SHERIDAN       CLOUDY    47  27  45 N7G17     29.89F
BUFFALO        CLOUDY    47  26  44 VRB6      29.94F
GILLETTE       PTSUNNY   46  28  49 SW20G25   29.92F
HULETT           N/A    N/A N/A N/A MISG        N/A
NEWCASTLE      FAIR      34  27  75 CALM      30.00F

$$
WYZ014>020-022>026-101>103-272000-
CENTRAL WYOMING

CITY           SKY/WX    TMP DP  RH WIND       PRES   REMARKS
BIG PINEY      CLOUDY   N/A N/A N/A E8        30.28F
PINEDALE       CLOUDY    36  27  69 E5        30.31F WCI  32
DUBOIS         FAIR      43  25  49 W28G35    30.17F
LANDER         PTSUNNY   54  23  30 NW3       30.05F
RIVERTON       PTSUNNY   51  25  36 VRB5      30.10F
CASPER         CLOUDY    47  25  42 SW26G38   30.06F
DOUGLAS        CLOUDY    53  26  35 W15G25    30.03F

$$
WYZ021-027>030-104>119-272000-
SOUTHERN WYOMING

CITY           SKY/WX    TMP DP  RH WIND       PRES   REMARKS
EVANSTON       PTSUNNY   51  22  31 S13G20    30.32F
FORT BRIDGER   FAIR      53  23  31 W17G23    30.34F
ROCK SPRINGS   CLOUDY    44  21  40 W8        30.30F
DIXON          FAIR      47  23  39 SW16G22   30.32F
RAWLINS        CLOUDY    46  21  37 W15       30.24F
SARATOGA       FAIR      50  21  32 W20       30.26F
LARAMIE        PTSUNNY   46  19  34 W21G26    30.21F
CHEYENNE       CLOUDY    53  20  27 W28G39    30.14F
TORRINGTON     MOSUNNY   50  35  56 VRB6      30.04F
PINE BLUFFS    FAIR      50  28  43 W12       30.12F

$$


USA.gov is the U.S. government's official web portal to all federal, state and local government web resources and services.